Weather History for Russellville, AR

Change the Weather History Date:

Tuesday, August 20, 2013

  Actual Average (KHOT) Record (KHOT)
Temperature  
Mean Temperature 77 °F -  
Max Temperature 91 °F 94 °F 103 °F (1993)
Min Temperature 64 °F 68 °F 60 °F (1953)
Cooling Degree Days 12    
Growing Degree Days 27 (Base 50)    
Moisture  
Dew Point 64 °F    
Average Humidity 68    
Maximum Humidity 93    
Minimum Humidity 35    
Precipitation  
Precipitation 0.00 in - - ()
Sea Level Pressure  
Sea Level Pressure 30.04 in    
Wind  
Wind Speed 1 mph (SE)    
Max Wind Speed 5 mph    
Max Gust Speed -    
Visibility 9 miles    
Events      
Averages and records for this station are not official NWS values.
T = Trace of Precipitation, MM = Missing Value Source: NWS Daily Summary

Daily Weather History Graph

Daily Weather History Graph

Search for Another Location

Airport:

Trip Planner

Search our weather history database for the weather conditions in past years. The results will help you decide how hot, cold, wet, or windy it might be!

Date:

Astronomy

Aug. 20, 2013 Rise Set
Actual Time 6:36 AM CDT 7:54 PM CDT
Civil Twilight 6:09 AM CDT 8:21 PM CDT
Nautical Twilight 5:37 AM CDT 8:52 PM CDT
Astronomical Twilight 5:04 AM CDT 9:25 PM CDT
Moon 7:29 PM CDT (8/20) 6:05 AM CDT (8/20)
Length of Visible Light 14h 11m
Length of Day
13h 18m
Full, 100% of the Moon is Illuminated
Aug 20
Full
Aug 20
Full
Aug 28
Last Quarter
Sep 5
New
Sep 12
First Quarter

Hourly Weather History & Observations

Time (CDT) Temp. Heat Index Dew Point Humidity Pressure Visibility Wind Dir Wind Speed Gust Speed Precip Events Conditions
12:53 AM 69.1 °F - 64.9 °F 87% 30.04 in 10.0 mi Calm Calm - N/A   Clear
1:53 AM 68.0 °F - 64.9 °F 90% 30.03 in 10.0 mi Calm Calm - N/A   Clear
2:53 AM 66.9 °F - 64.0 °F 90% 30.03 in 9.0 mi Calm Calm - N/A   Clear
3:53 AM 66.0 °F - 64.0 °F 93% 30.03 in 7.0 mi Calm Calm - N/A   Clear
4:53 AM 66.0 °F - 63.0 °F 90% 30.04 in 7.0 mi Calm Calm - N/A   Clear
5:53 AM 64.9 °F - 63.0 °F 93% 30.05 in 5.0 mi Calm Calm - N/A   Clear
6:53 AM 64.9 °F - 63.0 °F 93% 30.06 in 5.0 mi Calm Calm - N/A   Clear
7:53 AM 70.0 °F - 66.9 °F 90% 30.08 in 6.0 mi Calm Calm - N/A   Clear
8:53 AM 75.9 °F - 66.9 °F 74% 30.09 in 10.0 mi Calm Calm - N/A   Clear
9:53 AM 80.1 °F 82.3 °F 66.9 °F 64% 30.09 in 10.0 mi SSE 3.5 mph - N/A   Clear
10:53 AM 82.0 °F 84.5 °F 66.9 °F 60% 30.09 in 10.0 mi Variable 3.5 mph - N/A   Clear
11:53 AM 82.9 °F 84.6 °F 64.9 °F 54% 30.08 in 10.0 mi Calm Calm - N/A   Clear
12:53 PM 86.0 °F 87.6 °F 64.9 °F 49% 30.06 in 10.0 mi South 4.6 mph - N/A   Clear
1:53 PM 90.0 °F 91.7 °F 64.9 °F 43% 30.05 in 10.0 mi Calm Calm - N/A   Scattered Clouds
2:53 PM 90.0 °F 90.6 °F 63.0 °F 40% 30.03 in 10.0 mi Variable 3.5 mph - N/A   Mostly Cloudy
3:53 PM 90.0 °F 89.7 °F 60.1 °F 37% 30.01 in 10.0 mi East 3.5 mph - N/A   Clear
4:53 PM 90.0 °F 89.1 °F 59.0 °F 35% 30.00 in 10.0 mi Variable 4.6 mph - N/A   Clear
5:53 PM 89.1 °F 88.8 °F 60.1 °F 38% 30.00 in 10.0 mi Calm Calm - N/A   Clear
6:53 PM 87.1 °F 88.3 °F 64.0 °F 46% 30.00 in 10.0 mi Calm Calm - N/A   Clear
7:53 PM 80.1 °F 82.1 °F 66.0 °F 62% 30.01 in 10.0 mi Calm Calm - N/A   Clear
8:53 PM 75.9 °F - 66.0 °F 71% 30.02 in 10.0 mi Calm Calm - N/A   Clear
9:53 PM 73.9 °F - 66.0 °F 76% 30.04 in 10.0 mi Calm Calm - N/A   Clear
10:53 PM 73.0 °F - 66.0 °F 79% 30.05 in 10.0 mi Calm Calm - N/A   Clear
11:53 PM 71.1 °F - 66.0 °F 84% 30.05 in 10.0 mi Calm Calm - N/A   Clear